PDT,Max TemperatureF,Mean TemperatureF,Min TemperatureF,Max Dew PointF,MeanDew PointF,Min DewpointF,Max Humidity, Mean Humidity, Min Humidity, Max Sea Level PressureIn, Mean Sea Level PressureIn, Min Sea Level PressureIn, Max VisibilityMiles, Mean VisibilityMiles, Min VisibilityMiles, Max Wind SpeedMPH, Mean Wind SpeedMPH, Max Gust SpeedMPH,PrecipitationIn, CloudCover, Events, WindDirDegrees
2013-10-1,76,69,61,60,58,55,87,69,50,29.94,29.90,29.87,10,10,9,10,6,16,0.00,3,,142
2013-10-2,73,69,65,58,56,54,73,63,53,29.97,29.92,29.88,10,10,10,23,6,,0.00,6,,190
2013-10-3,74,69,63,57,56,55,84,69,53,29.93,29.88,29.83,10,9,7,12,3,,0.00,6,,241
2013-10-4,89,76,62,58,44,12,78,43,7,30.02,29.94,29.89,10,10,7,18,4,25,0.00,2,,128
2013-10-5,93,78,62,37,20,8,34,19,4,30.10,30.05,30.01,10,10,6,22,8,30,0.00,0,,58
2013-10-6,94,76,58,47,28,5,52,28,3,30.08,30.01,29.95,10,10,9,18,6,22,0.00,0,,311
2013-10-7,86,74,61,58,49,37,78,49,20,29.97,29.93,29.89,10,10,10,13,4,16,0.00,1,,269
2013-10-8,71,65,59,56,54,51,87,68,49,29.93,29.88,29.83,10,9,7,12,4,,0.00,5,,195
2013-10-9,68,62,55,52,47,40,67,55,42,29.82,29.77,29.72,10,9,6,22,7,31,0.09,6,Rain,224
2013-10-10,69,60,51,50,47,44,89,66,42,30.01,29.95,29.81,10,10,9,12,4,16,0.00,1,,241
2013-10-11,74,64,53,55,50,46,83,64,44,30.05,29.99,29.94,10,9,4,15,4,,0.00,0,,295
2013-10-12,75,65,54,55,53,50,86,68,49,29.98,29.94,29.88,10,9,5,15,4,18,0.00,0,,210
2013-10-13,68,63,58,55,53,50,86,70,53,30.02,29.97,29.94,10,10,8,12,4,24,0.00,4,,188
2013-10-14,83,69,55,55,51,43,83,55,26,30.02,29.96,29.88,10,9,6,15,4,16,0.00,0,,306
2013-10-15,88,73,57,54,40,25,80,45,10,29.96,29.91,29.86,10,10,8,15,4,17,0.00,0,,300
2013-10-16,87,72,57,43,31,15,53,31,8,30.06,30.00,29.97,10,10,10,13,3,,0.00,0,,295
2013-10-17,82,69,55,57,43,34,73,46,19,30.04,29.98,29.92,10,10,10,16,3,20,0.00,0,,263
2013-10-18,84,70,55,55,49,37,80,52,23,30.01,29.96,29.92,10,10,9,12,3,17,0.00,0,,297
2013-10-19,83,70,56,59,54,41,93,61,28,30.02,29.98,29.95,10,6,0,14,3,18,0.00,2,Fog,286
2013-10-20,73,65,57,58,55,54,93,73,53,29.99,29.95,29.89,10,5,0,9,4,14,0.00,4,Fog,239
2013-10-21,74,66,58,55,54,52,84,67,49,29.99,29.95,29.90,10,5,2,10,4,16,0.00,4,,326
2013-10-22,74,66,57,55,54,52,84,67,49,30.01,29.96,29.90,10,6,2,12,4,16,0.00,3,,310
2013-10-23,68,65,61,54,53,51,78,67,55,29.97,29.94,29.90,10,7,3,10,4,14,0.00,7,,228
2013-10-24,71,65,58,54,52,51,75,65,55,30.05,30.00,29.96,10,8,7,13,4,17,0.00,6,,206
2013-10-25,71,65,59,56,54,52,84,71,57,30.13,30.07,30.01,7,6,3,12,4,14,0.00,4,,279
2013-10-26,75,66,57,57,55,53,93,73,53,30.09,30.05,29.96,8,3,0,13,3,14,0.00,4,Fog,325
2013-10-27,69,64,58,58,55,52,93,78,63,29.97,29.91,29.82,10,5,0,12,5,58,0.00,6,Fog,148
2013-10-28,67,62,57,55,49,45,72,59,45,29.94,29.87,29.83,10,10,6,17,8,24,0.01,6,Rain,243
2013-10-29,67,60,53,51,48,46,89,69,48,30.01,29.97,29.93,10,10,9,13,4,18,0.02,3,Rain,259
2013-10-30,71,61,50,51,47,40,83,58,33,30.06,30.02,29.98,10,10,10,14,3,,0.00,0,,264
2013-10-31,82,67,51,49,43,31,77,48,18,30.09,30.03,29.98,10,10,9,16,4,21,0.00,0,,307